Voltar ao catálogo

PSLV DEB

AtivoSSO
NORAD 27133·DEBRIS·🇮🇳 India

Lançado Oct 22, 2001 de Satish Dhawan Space Centre

Loading…

Próximas Passagens (próximas 24 horas)

TLE

AtualizadoSource: Space-Track

Época: Sep 14, 2026, 12:53 UTC

1 27133U 01049CD  26257.53718083  .00000702  00000-0  12392-3 0  9996
2 27133  97.7547 186.2669 0039896 310.0627  49.7084 14.69898102319451

Acompanhe PSLV DEB em tempo real com AllMySat

Download on the App Store